This is the latest recevied weather packets stored in our database for station/object KE6YLF. If no packets are shown the sender has not sent any weather packets the latest 10 day(s).
| Time | Temp. | Humidity | Pressure | Rain* | Wind** | Luminosity | Snow |
|---|---|---|---|---|---|---|---|
| 1787878058 | 42.22° C | 24% | 1072.5 hPa | 0 mm | - | - | - |
| 1787877754 | 42.22° C | 24% | 1073 hPa | 0 mm | - | - | - |
| 1787877454 | 42.22° C | 24% | 1072.7 hPa | 0 mm | - | - | - |
| 1787877151 | 42.22° C | 24% | 1072.9 hPa | 0 mm | - | - | - |
| 1787876850 | 42.78° C | 24% | 1072.7 hPa | 0 mm | - | - | - |
| 1787876545 | 42.78° C | 24% | 1072.5 hPa | 0 mm | - | - | - |
| 1787876244 | 42.22° C | 25% | 1072.5 hPa | 0 mm | - | - | - |
| 1787875939 | 42.22° C | 25% | 1072.6 hPa | 0 mm | - | - | - |
| 1787875639 | 42.22° C | 25% | 1072.6 hPa | 0 mm | - | - | - |
| 1787875338 | 42.78° C | 24% | 1072.6 hPa | 0 mm | - | - | - |
| 1787875036 | 42.78° C | 24% | 1072.5 hPa | 0 mm | - | - | - |
| 1787874732 | 42.22° C | 24% | 1072.6 hPa | 0 mm | - | - | - |
| 1787874430 | 43.33° C | 24% | 1072.7 hPa | 0 mm | - | - | - |
| 1787874125 | 43.33° C | 24% | 1072.7 hPa | 0 mm | - | - | - |
| 1787873820 | 42.78° C | 24% | 1073 hPa | 0 mm | - | - | - |
| 1787873520 | 42.78° C | 24% | 1073.1 hPa | 0 mm | - | - | - |
| 1787873215 | 42.78° C | 24% | 1073 hPa | 0 mm | - | - | - |
| 1787872913 | 43.33° C | 24% | 1072.9 hPa | 0 mm | - | - | - |
| 1787872604 | 42.78° C | 24% | 1073 hPa | 0 mm | - | - | - |
| 1787872304 | 43.33° C | 24% | 1072.9 hPa | 0 mm | - | - | - |
| 1787871999 | 43.89° C | 24% | 1073 hPa | 0 mm | - | - | - |
| 1787871694 | 42.78° C | 25% | 1072.9 hPa | 0 mm | - | - | - |
| 1787871389 | 43.33° C | 24% | 1073.2 hPa | 0 mm | - | - | - |
| 1787871085 | 42.78° C | 25% | 1073.2 hPa | 0 mm | - | - | - |
| 1787870784 | 43.33° C | 24% | 1073.2 hPa | 0 mm | - | - | - |
* Rain latest hour (hover to see other rain measurements)
** Current wind speed in m/s (hover to see current wind gust speed)